Weather History for Kirksville, MO

Change the Weather History Date:

Friday, February 8, 2013

  Actual Average Record
Temperature  
Mean Temperature 30 °F 28 °F  
Max Temperature 31 °F 37 °F 66 °F (1943)
Min Temperature 28 °F 19 °F -15 °F (1933)
Degree Days  
Heating Degree Days 35 37  
Month to date heating degree days 289 301  
Since 1 July heating degree days 3665 3848  
Cooling Degree Days 0 0  
Month to date cooling degree days 0 0  
Year to date cooling degree days 0 0  
Moisture  
Dew Point 25 °F    
Average Humidity 89    
Maximum Humidity 92    
Minimum Humidity 85    
Precipitation  
Precipitation 0.00 in 0.05 in 1.16 in (2001)
Month to date precipitation 0.62 0.43  
Year to date precipitation 2.72 1.70  
Sea Level Pressure  
Sea Level Pressure 30.34 in    
Wind  
Wind Speed 8 mph (NE)    
Max Wind Speed 20 mph    
Max Gust Speed 24 mph    
Visibility 8 miles    
Events      
T = Trace of Precipitation, MM = Missing Value Source: NWS Daily Summary

Daily Weather History Graph

Daily Weather History Graph

Search for Another Location

Airport:

Trip Planner

Search our weather history database for the weather conditions in past years. The results will help you decide how hot, cold, wet, or windy it might be!

Date:

Astronomy

Feb. 08, 2013 Rise Set
Actual Time 7:11 AM CST 5:38 PM CST
Civil Twilight 6:43 AM CST 6:06 PM CST
Nautical Twilight 6:11 AM CST 6:38 PM CST
Astronomical Twilight 5:39 AM CST 7:09 PM CST
Moon 5:40 AM CST (2/8) 4:11 PM CST (2/8)
Length of Visible Light 11h 23m
Length of Day
10h 26m
Waning Crescent, 3% of the Moon is Illuminated
Feb 8
Waning Crescent
Feb 10
New
Feb 17
First Quarter
Feb 25
Full
Mar 4
Last Quarter

Hourly Weather History & Observations

Time (CST) Temp. Windchill Dew Point Humidity Pressure Visibility Wind Dir Wind Speed Gust Speed Precip Events Conditions
12:55 AM 30.0 °F 20.0 °F 28.0 °F 92% 30.19 in 5.0 mi NNW 12.7 mph 20.7 mph N/A   Overcast
1:55 AM 30.0 °F 20.0 °F 27.0 °F 88% 30.21 in 5.0 mi NNW 12.7 mph 19.6 mph N/A   Overcast
2:55 AM 30.0 °F 21.1 °F 27.0 °F 88% 30.23 in 5.0 mi NNW 10.4 mph - N/A   Overcast
3:38 AM 30.2 °F 21.9 °F 26.6 °F 86% 30.21 in 6.0 mi NNW 9.2 mph 19.6 mph N/A   Overcast
3:55 AM 28.9 °F 18.6 °F 27.0 °F 92% 30.26 in 5.0 mi NNW 12.7 mph 18.4 mph N/A   Overcast
4:55 AM 28.9 °F 20.4 °F 26.1 °F 89% 30.28 in 6.0 mi NNW 9.2 mph - N/A   Overcast
5:55 AM 28.9 °F 20.4 °F 25.0 °F 85% 30.30 in 6.0 mi North 9.2 mph - N/A   Overcast
6:55 AM 28.0 °F 18.6 °F 24.1 °F 85% 30.34 in 7.0 mi North 10.4 mph - N/A   Overcast
7:55 AM 28.0 °F 20.8 °F 24.1 °F 85% 30.36 in 8.0 mi North 6.9 mph - N/A   Overcast
8:55 AM 28.0 °F 20.8 °F 24.1 °F 85% 30.38 in 7.0 mi North 6.9 mph - N/A   Overcast
9:55 AM 28.0 °F 20.8 °F 24.1 °F 85% 30.39 in 7.0 mi NNE 6.9 mph - N/A   Overcast
10:55 AM 28.0 °F 21.7 °F 24.1 °F 85% 30.40 in 8.0 mi NNE 5.8 mph - N/A   Overcast
11:55 AM 28.0 °F 20.8 °F 24.1 °F 85% 30.39 in 9.0 mi ENE 6.9 mph - N/A   Overcast
12:55 PM 28.0 °F - 24.1 °F 85% 30.38 in 9.0 mi Calm Calm - N/A   Overcast
1:55 PM 28.9 °F 25.2 °F 25.0 °F 85% 30.38 in 9.0 mi ENE 3.5 mph - N/A   Overcast
2:55 PM 28.9 °F - 25.0 °F 85% 30.39 in 9.0 mi Calm Calm - N/A   Overcast
3:55 PM 28.9 °F 25.2 °F 25.0 °F 85% 30.40 in 10.0 mi East 3.5 mph - N/A   Overcast
4:55 PM 28.9 °F 22.8 °F 25.0 °F 85% 30.37 in 9.0 mi ESE 5.8 mph - N/A   Overcast
5:55 PM 28.0 °F 20.8 °F 25.0 °F 88% 30.37 in 9.0 mi SE 6.9 mph - N/A   Overcast
6:36 PM 28.4 °F 20.4 °F 24.8 °F 86% 30.32 in 9.0 mi SE 8.1 mph - N/A   Overcast
6:55 PM 28.0 °F 19.3 °F 25.0 °F 88% 30.37 in 9.0 mi ESE 9.2 mph - N/A   Overcast
7:55 PM 28.0 °F 19.3 °F 25.0 °F 88% 30.37 in 9.0 mi SSE 9.2 mph - N/A   Overcast
8:55 PM 28.0 °F 18.6 °F 25.0 °F 88% 30.37 in 9.0 mi SE 10.4 mph - N/A   Overcast
9:55 PM 28.0 °F 18.1 °F 25.0 °F 88% 30.37 in 9.0 mi SSE 11.5 mph - N/A   Overcast
10:55 PM 28.0 °F 18.1 °F 25.0 °F 88% 30.34 in 7.0 mi SSE 11.5 mph - N/A   Overcast
11:55 PM 28.0 °F 18.1 °F 25.0 °F 88% 30.35 in 8.0 mi SE 11.5 mph - N/A   Overcast